Tracking 28790 objects as of 18-Apr-2024
HD Live streaming from Space Station
objects crossing your sky now

STARLINK-2134

Track STARLINK-2134 now!
10-day predictions
STARLINK-2134 is classified as:


NORAD ID: 47407
Int'l Code: 2021-005BL
Perigee: 553.4 km
Apogee: 555.4 km
Inclination: 53.1 °
Period: 95.6 minutes
Semi major axis: 6925 km
RCS: Unknown
Launch date: January 20, 2021
Source: United States (US)
Launch site: AIR FORCE EASTERN TEST RANGE (AFETR)
Your satellite tracking list
Your tracking list is empty




NASA's NSSDC Master Catalog

Two Line Element Set (TLE):
1 47407U 21005BL  24108.63695220 -.00000844  00000-0 -37756-4 0  9998
2 47407  53.0532 253.8713 0001438  91.8522 268.2631 15.06386505179301
Source of the keplerian elements: AFSPC